User: anonymous   Login
Location: Tafessasset
(32.5899°N, 5.4824°W)
Time: 06:33:06
(UTC+00:00)
Language:

Milstar 3 - Orbit

View from above orbital plane
View from above orbital plane
View from above satellite
View from above satellite

Ground track
Ground track

The orbit data is extracted from the following two-line orbital elements,

1 25724U 99023A   20150.97770396 0.00000000  00000-0  00000-0 0    02
2 25724  28.2370 227.9826 2127578 218.3537 141.6458  9.37450933    03
Epoch (UTC): 29 May 2020 23:27:53
Eccentricity: 0.2127578
inclination: 28.2370°
perigee height: 1101 km
apogee height: 5144 km
right ascension of ascending node: 227.9826°
argument of perigee: 218.3537°
revolutions per day: 9.37450933
mean anomaly at epoch: 141.6458°
orbit number at epoch: 0

The dashed part of the orbit path shows where the satellite is in the earth's shadow,  

DLR